weather.gov     
National Weather Service

Regional Weather Roundup
NWS Homepage
This page is being discontinued on March 12, 2014.
The same data is available at this site. Please update your bookmarks.
Thank you, and we apologize for the inconvenience.
Please send an email to SR-SRH.Webmaster@noaa.gov with any concerns.


Current Version
Previous Version:    01  02  03  04  05  06  07  08  09  10  11  12  13  14  15  16  17  18  19  20  21  22  23  24  25  26  27  
[Printable]
357
ASUS44 KBMX 231110
RWRAL

ALABAMA REGIONAL WEATHER ROUNDUP
NATIONAL WEATHER SERVICE BIRMINGHAM AL
600 AM CDT THU OCT 23 2014

NOTE: "FAIR" INDICATES FEW OR NO CLOUDS BELOW 12,000 FEET
WITH NO SIGNIFICANT WEATHER AND/OR OBSTRUCTIONS TO VISIBILITY.

THE REMARK "TC" DENOTES TEMPERATURE IN DEGREES CELSIUS.

ALZ001>011-014-016>018-020-231200-
NORTH ALABAMA

CITY           SKY/WX    TMP DP  RH WIND       PRES   REMARKS
MUSCLE SHOALS  CLEAR     44  40  85 NE6       30.19S
HUNTSVILLE     CLEAR     45  40  82 NE6       30.18S
DECATUR        CLEAR     43  40  89 NE5       30.19R
HALEYVILLE     FAIR      43  40  89 N3        30.17S
GADSDEN        CLEAR     41  36  81 N5        30.17R
$$

ALZ012-013-022-023-030>036-040>044-231200-
WEST CENTRAL ALABAMA

CITY           SKY/WX    TMP DP  RH WIND       PRES   REMARKS
TUSCALOOSA     CLEAR     43  40  89 CALM      30.16R
$$

ALZ015-024>027-033>036-040>044-231200-
CENTRAL ALABAMA

CITY           SKY/WX    TMP DP  RH WIND       PRES   REMARKS
BIRMINGHAM     CLEAR     42  39  89 CALM      30.17R
MONTGOMERY     CLEAR     47  41  80 N5        30.12R
SHELBY CO ARPT CLEAR     48  42  80 CALM      30.13S
MAXWELL AFB    CLEAR     47  43  86 N7        30.12R
GREENVILLE     FAIR      46  40  79 N3        30.10R
$$

ALZ019-021-028-029-037-038-045>048-231200-
EAST CENTRAL ALABAMA

CITY           SKY/WX    TMP DP  RH WIND       PRES   REMARKS
ANNISTON       CLEAR     41  39  93 E5        30.16R
ALEXANDER CITY CLEAR     49  45  86 N7        30.13R
AUBURN         CLEAR     45  39  81 N10       30.13R
$$

ALZ051>064-231200-
SOUTHWEST ALABAMA

CITY           SKY/WX    TMP DP  RH WIND       PRES   REMARKS
MOBILE         CLEAR     48  44  86 NE7       30.08R
BROOKLEY FIELD CLEAR     56  49  77 NE12      30.09S
EVERGREEN      CLEAR     42  40  92 CALM      30.11R
$$

ALZ049-050-065>069-231200-
SOUTHEAST ALABAMA

CITY           SKY/WX    TMP DP  RH WIND       PRES   REMARKS
DOTHAN         CLEAR     42  40  92 NE5       30.11S
OZARK          CLEAR     44  41  91 NE6       30.07S
TROY           CLEAR     38  36  92 CALM      30.12R
EUFAULA        FAIR      41  39  93 CALM      30.09R
$$




U.S. Dept. of Commerce
NOAA National Weather Service
1325 East West Highway
Silver Spring, MD 20910
E-mail: w-nws.webmaster@noaa.gov
Page last modified: May 16, 2007
NATIONAL WEATHER SERVICE: for Safety, for Work, for Fun - FOR LIFE